WESTFORD NEEDLES, 629

Orbit data source: Space-Track

WESTFORD NEEDLES, 629 is space debris in LEO originally from a launch on Thu, 09 May 1963 UTC via an ATLAS AGENA B launch vehicle from the Air Force Western Test Range (AFWTR). Debris objects in space refer to the collection of defunct objects orbiting the Earth. Examples of debris include non-operational satellites, rocket bodies, and fragments generated from explosions, collisions, or faulty payload assembly.

Loading next visibility...
Identifier
629, 1963-014G
Orbit
LEO
Country
Flag of USUS
Related business
Manufacturer
MIT-LL
Mission
Spacecraft
Bus & Motor
Unknown
Mass
8 kg wet, 8 kg dry
Launch date (UTC)
1963-05-09 (63 years ago)
Launch vehicle
ATLAS AGENA B
Launch site
Air Force Western Test Range (AFWTR)
Object type
Payload
Rocket body
Debris
Shape & HBR
BOX, 1.1 m
Radar Cross Section
Large (>1 m²)

Expand to show TLE details & history
Last TLE update: 1 day ago

TLE from 1 day ago
0 WESTFORD NEEDLES
1 00629U 63014G   26266.16322108  .00000001  00000-0 -75760-3 0  9996
2 00629  87.3640 182.1983 0018067 241.4087 118.4950  8.65564293  2689
Epoch: 2026-09-23T03:55Z
TLE epoch observation values (Epoch: 2026-09-23T03:55:02.301Z)
Latitude
0.00003°
Longitude
121.42042°
Altitude
3,652.741 km
Speed
6.302 km/s
True Right ascension
12h 08m 47s
True Declination
0° 00' 00"
Sunlit
Object was in daylight at epoch
Visualization orbit readout
Latitude
Unknown
Longitude
Unknown
Altitude
Unknown
Speed
Unknown
Apparent Right ascension
Unknown
Apparent Declination
Unknown
Sunlit
N/A
Visualization observer readout
Local Sidereal Time
02:06:26
Azimuth
Unknown
Elevation
Unknown
Doppler factor
Unknown
Orbital elements
Apogee altitude
3,657.813 km
Perigee altitude
3,621.615 km
Semi-major axis
10,017.851 km
Eccentricity
0.00181
Inclination
87.364°
RAAN
182.1983°
Arg. of periapsis
241.4087°
True anomaly
118.67676°
Mean anomaly
118.495°
Eccentric anomaly
118.5859°
Mean motion
2.16462 °/min
Orbital period
166.31 mins
BSTAR
-0.0007576
Loading maneuver chart data...
Computing Atmospheric mass density...

Documentation

Showing up to 5 results
|